This demonstration page uses our WeatherBlox Daily Observations layout. Learn more.

40.92945, -100.16068

Hourly Observations for January 26, 2019

Temp ( °F °C ) Dew Point ( °F °C ) Humidity (%) Winds ( mph kmh ) Pressure ( in mb ) Visibility ( mi km ) Precip ( " mm )
12:15 am 00:15 Cloudy 28 -2.5 25 -4.1 89 89 Calm 30.18 1022 10 16.09344 0 0
12:35 am 00:35 Cloudy 28 -2.3 25 -4.1 88 88 Calm 30.18 1022 10 16.09344 0 0
12:55 am 00:55 Cloudy 28 -2 25 -3.7 88 88 S 5 7 30.18 1022 10 16.09344 0 0
1:15 am 01:15 Cloudy 28 -2.3 25 -4 88 88 Calm 30.18 1022 10 16.09344 0 0
1:35 am 01:35 Cloudy 27 -3 24 -4.5 90 90 W 5 7 30.18 1022 10 16.09344 0 0
1:55 am 01:55 Mostly Cloudy 26 -3.2 24 -4.6 90 90 W 6 9 30.18 1022 10 16.09344 0 0
2:15 am 02:15 Clear 26 -3.6 23 -5 90 90 W 6 9 30.18 1022 10 16.09344 0 0
2:35 am 02:35 Partly Cloudy 28 -2.4 24 -4.2 88 88 WSW 9 15 30.18 1022 10 16.09344 0 0
2:55 am 02:55 Partly Cloudy 29 -1.7 24 -4.5 81 81 W 9 15 30.15 1021 10 16.09344 0 0
3:15 am 03:15 Partly Cloudy 29 -1.7 23 -4.8 80 80 W 8 13 30.15 1021 10 16.09344 0 0
3:35 am 03:35 Clear 29 -1.6 23 -5 78 78 W 7 11 30.15 1021 10 16.09344 0 0
3:55 am 03:55 Partly Cloudy 30 -1.3 23 -5 76 76 W 10 17 30.15 1021 10 16.09344 0 0
4:15 am 04:15 Mostly Cloudy 30 -1.3 23 -5.1 76 76 W 9 15 30.15 1021 10 16.09344 0 0
4:35 am 04:35 Cloudy 29 -1.7 23 -5.1 78 78 W 9 15 30.15 1021 10 16.09344 0 0
4:55 am 04:55 Cloudy 29 -1.7 23 -5.2 77 77 W 8 13 30.15 1021 10 16.09344 0 0
5:15 am 05:15 Partly Cloudy 29 -1.5 23 -5.1 77 77 WNW 9 15 30.12 1020 10 16.09344 0 0
5:35 am 05:35 Partly Cloudy 30 -1.3 23 -4.8 77 77 WNW 9 15 30.12 1020 10 16.09344 0 0
5:55 am 05:55 Partly Cloudy 29 -1.7 23 -5 78 78 WNW 3 6 30.12 1020 10 16.09344 0 0
6:15 am 06:15 Clear 29 -1.5 23 -4.8 78 78 Calm 30.12 1020 10 16.09344 0 0
6:35 am 06:35 Clear 28 -2 23 -5.1 80 80 NW 3 6 30.12 1020 10 16.09344 0 0
6:55 am 06:55 Clear 28 -2.3 22 -5.3 80 80 W 3 6 30.09 1019 10 16.09344 0 0
7:15 am 07:15 Partly Cloudy 29 -1.9 23 -5.1 79 79 Calm 30.09 1019 10 16.09344 0 0
7:35 am 07:35 Cloudy 28 -2.1 22 -5.3 79 79 WNW 7 11 30.09 1019 10 16.09344 0 0
7:55 am 07:55 Cloudy 32 0.2 25 -4 74 74 WNW 13 20 30.09 1019 10 16.09344 0 0
8:15 am 08:15 Cloudy 32 0 25 -4 75 75 WNW 10 17 30.12 1020 10 16.09344 0 0
8:35 am 08:35 Cloudy 32 0 25 -4 75 75 WNW 10 17 30.12 1020 10 16.09344 0 0
8:55 am 08:55 Mostly Cloudy 32 0 25 -4 75 75 WNW 8 13 30.12 1020 10 16.09344 0 0
9:15 am 09:15 Mostly Cloudy 33 0.3 25 -3.7 75 75 NW 9 15 30.12 1020 10 16.09344 0 0
9:35 am 09:35 Cloudy 34 1 26 -3.5 72 72 WNW 10 17 30.09 1019 10 16.09344 0 0
9:55 am 09:55 Cloudy 35 1.6 26 -3.1 71 71 WNW 8 13 30.12 1020 10 16.09344 0 0
10:15 am 10:15 Cloudy 38 3.1 26 -3.3 63 63 WNW 14 22 30.12 1020 10 16.09344 0 0
10:35 am 10:35 Mostly Cloudy 39 3.7 25 -3.8 58 58 NW 16 26 30.12 1020 10 16.09344 0 0
10:55 am 10:55 Partly Cloudy 39 4.1 25 -3.8 57 57 WNW 14 22 30.09 1019 10 16.09344 0 0
11:15 am 11:15 Sunny 39 4.1 25 -3.7 57 57 WNW 15 24 30.09 1019 10 16.09344 0 0
11:35 am 11:35 Sunny 40 4.7 26 -3.6 55 55 WNW 16 26 30.09 1019 10 16.09344 0 0
11:55 am 11:55 Sunny 42 5.7 27 -3 54 54 NW 15 24 30.09 1019 10 16.09344 0 0
12:15 pm 12:15 Sunny 42 5.8 27 -2.7 55 55 WNW 15 24 30.09 1019 10 16.09344 0 0
12:35 pm 12:35 Partly Cloudy 45 7.2 30 -1.3 55 55 NNW 18 30 30.06 1018 10 16.09344 0 0
12:55 pm 12:55 Partly Cloudy 44 6.9 29 -1.7 55 55 WNW 15 24 30.03 1017 10 16.09344 0 0
1:15 pm 13:15 Partly Cloudy 46 7.8 29 -1.8 51 51 NW 18 30 30.03 1017 10 16.09344 0 0
1:35 pm 13:35 Cloudy 46 7.6 28 -2.1 51 51 NW 20 31 30.03 1017 10 16.09344 0 0
1:55 pm 13:55 Cloudy 46 7.9 28 -2.1 50 50 NNW 15 24 30.03 1017 10 16.09344 0 0
2:15 pm 14:15 Cloudy 45 7.3 28 -2.4 51 51 NW 13 20 30.03 1017 10 16.09344 0 0
2:35 pm 14:35 Cloudy 46 7.5 28 -2.5 49 49 NW 18 30 30 1016 10 16.09344 0 0
2:55 pm 14:55 Cloudy 46 7.7 28 -2.3 50 50 NW 16 26 30 1016 10 16.09344 0 0
3:15 pm 15:15 Cloudy 45 7.1 29 -1.9 53 53 NW 8 13 30 1016 10 16.09344 0 0
3:35 pm 15:35 Cloudy 45 7 28 -2 53 53 NW 6 9 30 1016 10 16.09344 0 0
3:55 pm 15:55 Cloudy 44 6.5 29 -1.5 57 57 NNW 5 7 30.06 1018 10 16.09344 0 0
4:15 pm 16:15 Cloudy 43 6.1 30 -1.2 60 60 Calm 30.06 1018 10 16.09344 0 0
4:35 pm 16:35 Cloudy 42 5.8 30 -1.3 61 61 Calm 30.06 1018 10 16.09344 0 0
4:55 pm 16:55 Cloudy 42 5.4 30 -0.9 64 64 NW 5 7 30.06 1018 10 16.09344 0 0
5:15 pm 17:15 Cloudy 42 5.5 30 -1.3 62 62 NNW 14 22 30.06 1018 10 16.09344 0 0
5:35 pm 17:35 Cloudy 40 4.4 31 -0.5 71 71 N 10 17 30.09 1019 10 16.09344 0 0
5:55 pm 17:55 Cloudy 38 3.3 31 -0.7 75 75 N 8 13 30.12 1020 10 16.09344 0 0
6:15 pm 18:15 Cloudy 37 3 30 -1 75 75 N 10 17 30.12 1020 10 16.09344 0 0
6:35 pm 18:35 Cloudy 37 3 30 -1 75 75 NNW 8 13 30.12 1020 10 16.09344 0 0
6:55 pm 18:55 Cloudy 35 1.8 29 -1.4 80 80 NNW 5 7 30.12 1020 10 16.09344 0 0
7:15 pm 19:15 Cloudy 34 1 29 -1.6 83 83 W 6 9 30.12 1020 10 16.09344 0 0
7:35 pm 19:35 Mostly Cloudy 33 0.5 29 -1.6 86 86 W 9 15 30.15 1021 10 16.09344 0 0
7:55 pm 19:55 Cloudy 35 1.6 30 -1.1 82 82 WNW 8 13 30.12 1020 10 16.09344 0 0
8:15 pm 20:15 Cloudy 35 1.9 30 -1 81 81 NW 13 20 30.15 1021 10 16.09344 0 0
8:35 pm 20:35 Cloudy 37 2.5 30 -1 78 78 NNW 13 20 30.15 1021 10 16.09344 0 0
8:55 pm 20:55 Cloudy 37 2.5 30 -1.1 77 77 NNW 13 20 30.15 1021 10 16.09344 0 0
9:15 pm 21:15 Cloudy 36 2.1 30 -1.3 78 78 NNW 9 15 30.15 1021 10 16.09344 0 0
9:35 pm 21:35 Mostly Cloudy 34 1.1 28 -2 80 80 NW 7 11 30.18 1022 10 16.09344 0 0
9:55 pm 21:55 Partly Cloudy 32 0.1 28 -2.2 85 85 WNW 7 11 30.18 1022 10 16.09344 0 0
10:15 pm 22:15 Clear 32 -0.2 27 -2.6 84 84 NW 7 11 30.18 1022 10 16.09344 0 0
10:35 pm 22:35 Clear 30 -0.9 27 -2.9 86 86 NW 8 13 30.18 1022 10 16.09344 0 0
10:55 pm 22:55 Partly Cloudy 30 -1.3 26 -3.1 88 88 WNW 7 11 30.18 1022 10 16.09344 0 0
11:15 pm 23:15 Partly Cloudy 29 -1.4 27 -3 89 89 W 10 17 30.18 1022 10 16.09344 0 0
11:35 pm 23:35 Mostly Cloudy 31 -0.8 28 -2.5 88 88 WSW 8 13 30.18 1022 10 16.09344 0 0
11:55 pm 23:55 Cloudy 31 -0.5 28 -2.2 88 88 W 8 13 30.18 1022 10 16.09344 0 0

Powered by AerisWeather